Miscellaneous Local Product
Issued by NWS Hastings, NE

Home | Current Version | Previous Version | Text Only | Print | Product List | Glossary Off
Versions: 1 2 3 4 5 6 7 8 9 10 11 12 13 14 15 16 17 18 19 20 21 22 23 24 25 26 27 28 29 30 31 32 33 34 35 36 37 38 39 40 41 42 43 44 45 46 47 48 49 50

000
AXUS43 KGID 262002
MISGRI

GID CWA HOURLY WEATHER ROUNDUP
NATIONAL WEATHER SERVICE HASTINGS NE
300 PM CDT SAT JUL 26 2014

NOTE: "FAIR" INDICATES FEW OR NO CLOUDS BELOW 12,000 FEET WITH NO
SIGNIFICANT WEATHER AND/OR OBSTRUCTIONS TO VISIBILITY.

...SOUTH CENTRAL NEBRASKA...

CITY           SKY/WX    TMP DP  RH WIND       PRES   REMARKS
GRAND ISLAND   SUNNY     91  73  55 VRB3      29.89R HX  99
HASTINGS       MOSUNNY   91  74  57 NE12G22   29.88R HX 100
KEARNEY        MOSUNNY   97  70  41 NW16G22   29.88S HX 103
ORD            SUNNY     84  71  65 N21G29    29.90R
YORK           MOSUNNY   90  77  66 N5        29.87S HX 102
AURORA         MOSUNNY   89  77  67 NW6       29.89R HX 102
LEXINGTON      SUNNY     92  67  44 N14G23    29.93R HX  95
HOLDREGE       SUNNY     91  70  49 CALM      29.90S HX  96
HEBRON         SUNNY     97  71  44 N8        29.83R HX 104

...NEBRASKA PANHANDLE...

CITY           SKY/WX    TMP DP  RH WIND       PRES   REMARKS
CHADRON        SUNNY     86  42  21 N13G18    30.07S
ALLIANCE       SUNNY     88  49  25 NE16      30.08S
SCOTTSBLUFF    MOSUNNY   89  46  22 VRB6      30.09S
SIDNEY         PTSUNNY   87  49  26 NE12      30.11F

...WESTERN AND NORTH CENTRAL NEBRASKA...

CITY           SKY/WX    TMP DP  RH WIND       PRES   REMARKS
VALENTINE      PTSUNNY   80  64  58 N17G24    30.03S
AINSWORTH      PTSUNNY   78  61  55 N12       30.03S
ONEILL         MOSUNNY   80  65  60 E13       29.95S
BROKEN BOW     MOSUNNY   84  70  62 N20G28    29.94R
IMPERIAL       SUNNY     94  57  28 N14       30.02R HX  92
NORTH PLATTE   MOSUNNY   86  67  52 N15G23    29.98R
MCCOOK         SUNNY     97  59  28 N17G23    29.93S HX  96

...EASTERN NEBRASKA...

CITY           SKY/WX    TMP DP  RH WIND       PRES   REMARKS
NORFOLK        CLOUDY    80  73  79 SE12G20   29.89F
SO SIOUX CITY  LGT RAIN  84  74  71 E5        29.87F HX  91
COLUMBUS       PTSUNNY   81  72  74 N20G26    29.92R
ALBION         MOSUNNY   76  69  79 E10       29.91R
OMAHA EPPLEY   CLOUDY    85  72  65 NE8       29.87R HX  91
OFFUTT AFB     PTSUNNY   85  77  78 NE8       29.86R HX  95
MILLARD        PTSUNNY   84  74  71 NE5       29.87R HX  92
LINCOLN        PTSUNNY   89  76  65 NE16      29.87R HX 100
NEBRASKA CITY  CLOUDY    86  75  68 NE7       29.86R HX  95
BEATRICE       SUNNY     92  77  60 N10       29.84R HX 105
FALLS CITY     NOT AVBL

...NORTHERN KANSAS...

CITY           SKY/WX    TMP DP  RH WIND       PRES   REMARKS
GOODLAND       SUNNY     96  52  22 N13       30.03S HX  93
HILL CITY      SUNNY    105  59  22 NW10      29.87F HX 105
NORTON         CLEAR    100  46  16 NW14G20   29.89R HX  96
PHILLIPSBURG   SUNNY    100  59  25 W10       29.85S HX 100
SMITH CENTER   SUNNY    102  63  27 CALM      29.83F HX 104
HAYS           MOSUNNY   99  66  34 W7        29.87S HX 102
RUSSELL        SUNNY     99  65  32 W6        29.84F HX 102
CONCORDIA      SUNNY    100  67  33 SW6       29.80S HX 105
SALINA         SUNNY    103  62  26 VRB7      29.81S HX 105
TOPEKA         CLOUDY    90  71  53 VRB5      29.81F HX  96



USA.gov is the U.S. government's official web portal to all federal, state and local government web resources and services.